Home   Weather   Leibnitz   Past weeks

Flag for Austria Past Weather in Leibnitz, Styria, Austria — Yesterday and Last 2 Weeks

Now
17 °F

Clear.


Feels Like: N/A
Forecast: 11 / 29 °F
Wind: N/A

Location: Graz-Thalerhof-Flughafen

Current Time: Jan 21, 2017 at 10:50:34 pm

Latest Report: Jan 21, 2017 at 10:00 pm


Visibility: 3 mi

Pressure: 30.60 "Hg

Humidity: 89%

Dew Point: 14 °F

Location of LeibnitzLocation

Past Weather in Leibnitz — Graph

°F

Leibnitz Temperature Yesterday

Maximum temperature yesterday: 30 °F (at 2:00 pm)
Minimum temperature yesterday: 10 °F (at 7:00 am)
Average temperature yesterday: 19 °F

High & Low Weather Summary for the Past Weeks

 TemperatureHumidityPressure
High39 °F (Jan 9, 2:00 pm)98% (Jan 14, 4:00 am)30.72 "Hg (Jan 14, 4:00 am)
Low1 °F (Jan 11, 7:00 am)27% (Jan 7, 2:00 pm)29.50 "Hg (Jan 13, 7:00 am)
Average21 °F80%30.27 "Hg
* Reported Jan 6 9:00 pm — Jan 21 9:00 pm, Leibnitz, Weather by CustomWeather, © 2017

Note: Actual official high and low records may vary slightly from our data, if they occured in-between our weather recording intervals... More about our weather records

Advertising

Leibnitz Weather History for the Previous 24 Hours

Scroll right to see more
 ConditionsComfort  
Time TempWeatherWind HumidityBarometerVisibility
9:00 pm
Sat, Jan 21
18 °FClear.N/A87%30.59 "Hg5 mi
8:00 pm19 °FClear.N/A84%30.58 "Hg4 mi
7:00 pm23 °FClear.N/A79%30.56 "Hg5 mi
6:00 pm22 °FClear.N/A77%30.55 "Hg7 mi
5:00 pm28 °FClear.N/A65%30.52 "Hg9 mi
4:00 pm31 °FSunny.N/A60%30.51 "Hg11 mi
3:00 pm32 °FSunny.N/A55%30.51 "Hg11 mi
2:00 pm31 °FSunny.N/A57%30.52 "Hg10 mi
1:00 pm29 °FSunny.N/A61%30.54 "Hg9 mi
12:00 pm25 °FSunny.N/A70%30.57 "Hg7 mi
11:00 am22 °FSunny.N/A76%30.59 "Hg4 mi
10:00 am18 °FSunny.N/A86%30.62 "Hg3 mi
9:00 am14 °FSunny.N/A88%30.62 "Hg3 mi
8:00 am9 °FSunny.N/A88%30.63 "Hg2 mi
7:00 am9 °FClear.N/A88%30.60 "Hg3 mi
6:00 am8 °FPassing clouds.N/A88%30.61 "Hg4 mi
5:00 am10 °FCold.N/A89%30.62 "Hg4 mi
4:00 am11 °FCold.N/A90%30.62 "Hg3 mi
3:00 am10 °FCold.No wind90%30.63 "Hg4 mi
2:00 am11 °FCold.N/A90%30.63 "Hg3 mi
1:00 am12 °FCold.N/A92%30.64 "Hg3 mi
12:00 am14 °FCold.N/A91%30.66 "Hg3 mi
11:00 pm
Fri, Jan 20
15 °FClear.N/A93%30.65 "Hg3 mi
10:00 pm15 °FClear.N/A91%30.66 "Hg3 mi
Weather by CustomWeather, © 2017

See weather overviewHow to use our weather pages